Find NNS 30490-39

NORAD ID: 19223 Int'l Des: 1988-052 Owner: NAVAIR Country: US operational
LEOCIRCULARPOLARONEWEB_TYPE

Aktuelle Ansicht

3D-Globus wird geladen...

Über NNS 30490-39

Beschreibung wird geladen...

Nächste Überflüge

Passes for default location (London). Set your location on the main map for personalized predictions.

Höhenverlauf

Loading altitude history...

Zweizeiliger Elementsatz

1 19223U 88052A 26150.64674457 .00000026 00000-0 41484-4 0 9990
2 19223 89.9869 77.9877 0028415 268.5061 140.1535 13.22955633831810
Epoch: 30. Mai 2026 • Age: 13 hours

Aktueller Status

Höhe 1195.7 km
Geschwindigkeit 7.25 km/s
Subsatellitenpunkt 44.04°N, 126.27°E
Startdatum 16. Juni 1988
Alter 37.9 years
Typ other

Technische Details

Klassifizierung Payload
Masse 170.00 kg
Trockenmasse 150.00 kg
Gesamtmasse 170.00 kg
Länge 1.10 m
Durchmesser 0.50 m
Spannweite 79.20 m
Form Cyl + 4 Pan + Ant
Hersteller GEEW
Bus-Typ Nova
Phasenstatus In Orbit
Besitzer/Staat NAVAIR/US

Most Searched